カタログに戻る

STARLINK-36963

運用中通信VLEO
NORAD 68235·PAYLOAD·🇺🇸 United States

打ち上げ Mar 17, 2026 から Vandenberg Space Force Base

Loading…

次のパス (今後24時間)

TLE

最新Source: CelesTrak SupGP

元期: Sep 15, 2026, 04:15 UTC

1 68235C 26054D   26258.17756944  .00016701  00000+0  49313-3 0  2582
2 68235  53.1557 126.9465 0001096  90.5169 142.9518 15.34402558    19

AllMySatでSTARLINK-36963をリアルタイム追跡

Download on the App Store